JTC232 KSTP-KMVL

Flight info

Callsign JTC232
Flight time 1h 51m
Altitude 39000
Route WLSTN7 GRB ASP RAKAM
Aircraft C750/M-SBDE3FGHRWXY/S

Departure

Time 2026-04-22 00:11
Airport Saint Paul Downtown Holman Field (KSTP)

Arrival

Time 2026-04-22 02:02
Airport Morrisville-Stowe State Airport (KMVL)
Time Latitude Longitude Altitude Speed Heading
2026-04-21 23:55 44.93289 -93.06515 708 ft 0 kts 91°
2026-04-22 00:06 44.93292 -93.06480 708 ft 5 kts 79°
2026-04-22 00:06 44.93298 -93.06405 708 ft 10 kts 88°
2026-04-22 00:06 44.93264 -93.06337 705 ft 9 kts 162°
2026-04-22 00:07 44.93210 -93.06293 708 ft 11 kts 145°
2026-04-22 00:07 44.93137 -93.06224 709 ft 12 kts 145°
2026-04-22 00:07 44.93146 -93.06151 711 ft 10 kts 56°
2026-04-22 00:07 44.93167 -93.06075 709 ft 8 kts 118°
2026-04-22 00:08 44.93112 -93.06016 709 ft 12 kts 147°
2026-04-22 00:08 44.93047 -93.05955 711 ft 11 kts 146°
2026-04-22 00:08 44.92984 -93.05895 712 ft 11 kts 146°
2026-04-22 00:08 44.92917 -93.05831 710 ft 13 kts 146°
2026-04-22 00:09 44.92831 -93.05750 709 ft 15 kts 146°
2026-04-22 00:09 44.92737 -93.05661 713 ft 19 kts 146°
2026-04-22 00:09 44.92618 -93.05548 711 ft 18 kts 146°
2026-04-22 00:09 44.92606 -93.05466 711 ft 9 kts 56°
2026-04-22 00:10 44.92654 -93.05404 713 ft 12 kts 350°
2026-04-22 00:10 44.92712 -93.05452 711 ft 28 kts 327°
2026-04-22 00:10 44.93205 -93.05920 716 ft 132 kts 326°
2026-04-22 00:10 44.94044 -93.06687 1110 ft 156 kts 327°
2026-04-22 00:11 44.94992 -93.07576 1644 ft 171 kts 326°
2026-04-22 00:11 44.96044 -93.08600 2089 ft 195 kts 329°
2026-04-22 00:11 44.97457 -93.08938 2387 ft 228 kts 10°
2026-04-22 00:11 44.98922 -93.07784 2960 ft 252 kts 37°
2026-04-22 00:12 45.00161 -93.06017 4099 ft 254 kts 47°
2026-04-22 00:12 45.01294 -93.04057 5105 ft 262 kts 49°
2026-04-22 00:12 45.02485 -93.02060 6004 ft 269 kts 46°
2026-04-22 00:12 45.03706 -93.00109 6768 ft 266 kts 44°
2026-04-22 00:13 45.04979 -92.98073 7456 ft 279 kts 45°
2026-04-22 00:13 45.06249 -92.96000 8604 ft 280 kts 45°
2026-04-22 00:13 45.07524 -92.93921 9447 ft 288 kts 44°
2026-04-22 00:13 45.08866 -92.91746 10345 ft 294 kts 44°
2026-04-22 00:14 45.10248 -92.89512 10630 ft 319 kts 44°
2026-04-22 00:14 45.11774 -92.87035 10746 ft 347 kts 45°
2026-04-22 00:14 45.13381 -92.84402 11290 ft 355 kts 45°
2026-04-22 00:14 45.14998 -92.81748 12088 ft 357 kts 45°
2026-04-22 00:15 45.16642 -92.79072 12833 ft 362 kts 45°
2026-04-22 00:15 45.18305 -92.76362 13571 ft 365 kts 45°
2026-04-22 00:15 45.19953 -92.73588 14168 ft 372 kts 49°
2026-04-22 00:15 45.21100 -92.70233 14724 ft 384 kts 69°
2026-04-22 00:16 45.21764 -92.66545 15379 ft 388 kts 73°
2026-04-22 00:16 45.22358 -92.62786 15995 ft 393 kts 74°
2026-04-22 00:16 45.22948 -92.59039 16598 ft 397 kts 73°
2026-04-22 00:16 45.23579 -92.55208 17247 ft 401 kts 73°
2026-04-22 00:17 45.24228 -92.51278 17913 ft 406 kts 73°
2026-04-22 00:17 45.24852 -92.47405 18541 ft 410 kts 73°
2026-04-22 00:17 45.25487 -92.43427 19151 ft 415 kts 73°
2026-04-22 00:17 45.26133 -92.39416 19766 ft 419 kts 73°
2026-04-22 00:18 45.26789 -92.35360 20396 ft 424 kts 73°
2026-04-22 00:18 45.27446 -92.31263 21032 ft 428 kts 73°
2026-04-22 00:18 45.28108 -92.27112 21641 ft 434 kts 73°
2026-04-22 00:18 45.28777 -92.22914 22264 ft 438 kts 73°
2026-04-22 00:19 45.29452 -92.18677 22888 ft 443 kts 73°
2026-04-22 00:19 45.30126 -92.14428 23490 ft 447 kts 73°
2026-04-22 00:19 45.30811 -92.10097 24014 ft 451 kts 76°
2026-04-22 00:19 45.31507 -92.05685 24120 ft 461 kts 77°
2026-04-22 00:20 45.32201 -92.01264 24968 ft 454 kts 73°
2026-04-22 00:20 45.32892 -91.96870 25455 ft 459 kts 72°
2026-04-22 00:20 45.33591 -91.92423 25977 ft 463 kts 72°
2026-04-22 00:20 45.34289 -91.87943 26470 ft 467 kts 72°
2026-04-22 00:21 45.34993 -91.83416 26965 ft 470 kts 72°
2026-04-22 00:21 45.35701 -91.78851 27490 ft 474 kts 72°
2026-04-22 00:21 45.36414 -91.74256 27988 ft 477 kts 72°
2026-04-22 00:21 45.37129 -91.69626 28494 ft 481 kts 72°
2026-04-22 00:22 45.37846 -91.64962 29002 ft 485 kts 71°
2026-04-22 00:22 45.38559 -91.60320 29488 ft 488 kts 71°
2026-04-22 00:22 45.39284 -91.55582 29962 ft 492 kts 71°
2026-04-22 00:22 45.40012 -91.50809 30392 ft 495 kts 72°
2026-04-22 00:23 45.40742 -91.46009 30835 ft 497 kts 71°
2026-04-22 00:23 45.41468 -91.41210 31482 ft 494 kts 71°
2026-04-22 00:23 45.42185 -91.36451 32209 ft 490 kts 70°
2026-04-22 00:23 45.42899 -91.31723 32894 ft 487 kts 69°
2026-04-22 00:24 45.43606 -91.27032 33595 ft 483 kts 69°
2026-04-22 00:24 45.44304 -91.22365 34263 ft 480 kts 68°
2026-04-22 00:24 45.44998 -91.17717 34813 ft 479 kts 68°
2026-04-22 00:24 45.45692 -91.13079 35352 ft 479 kts 69°
2026-04-22 00:25 45.46271 -91.08386 35831 ft 487 kts 75°
2026-04-22 00:25 45.46365 -91.03519 36363 ft 497 kts 85°
2026-04-22 00:25 45.45930 -90.98591 36909 ft 507 kts 94°
2026-04-22 00:25 45.44964 -90.93724 37431 ft 515 kts 104°
2026-04-22 00:26 45.43563 -90.89009 37968 ft 518 kts 109°
2026-04-22 00:26 45.42078 -90.84349 38385 ft 518 kts 109°
2026-04-22 00:26 45.40611 -90.79688 38821 ft 514 kts 108°
2026-04-22 00:27 45.37701 -90.70209 38908 ft 532 kts 109°
2026-04-22 00:27 45.36174 -90.65359 38920 ft 543 kts 109°
2026-04-22 00:27 45.34612 -90.60423 38915 ft 552 kts 109°
2026-04-22 00:28 45.31451 -90.50302 38920 ft 568 kts 109°
2026-04-22 00:28 45.28200 -90.40036 38915 ft 571 kts 109°
2026-04-22 00:29 45.24950 -90.29745 38911 ft 571 kts 109°
2026-04-22 00:29 45.21687 -90.19482 38912 ft 571 kts 109°
2026-04-22 00:30 45.18410 -90.09214 38908 ft 571 kts 109°
2026-04-22 00:30 45.15130 -89.98969 38917 ft 571 kts 110°
2026-04-22 00:31 45.11871 -89.88838 38902 ft 568 kts 110°
2026-04-22 00:31 45.08586 -89.78659 38902 ft 569 kts 110°
2026-04-22 00:32 45.05289 -89.68487 38899 ft 569 kts 110°
2026-04-22 00:32 45.01978 -89.58306 38903 ft 569 kts 110°
2026-04-22 00:33 44.98659 -89.48148 38881 ft 568 kts 110°
2026-04-22 00:33 44.95340 -89.38026 38884 ft 568 kts 110°
2026-04-22 00:34 44.92012 -89.27912 38885 ft 568 kts 110°
2026-04-22 00:34 44.88701 -89.17895 38899 ft 563 kts 111°
2026-04-22 00:35 44.85384 -89.07888 38896 ft 564 kts 111°
2026-04-22 00:35 44.82050 -88.97876 38897 ft 564 kts 111°
2026-04-22 00:36 44.78710 -88.87878 38898 ft 564 kts 111°
2026-04-22 00:36 44.75362 -88.77898 38894 ft 562 kts 112°
2026-04-22 00:37 44.72014 -88.67952 38873 ft 563 kts 112°
2026-04-22 00:37 44.68653 -88.58008 38876 ft 563 kts 112°
2026-04-22 00:38 44.65287 -88.48084 38877 ft 563 kts 112°
2026-04-22 00:38 44.61908 -88.38158 38888 ft 563 kts 113°
2026-04-22 00:39 44.58518 -88.28241 38886 ft 561 kts 113°
2026-04-22 00:39 44.55839 -88.18047 38875 ft 555 kts 99°
2026-04-22 00:40 44.55163 -88.07404 38919 ft 545 kts 85°
2026-04-22 00:40 44.55535 -87.96809 38921 ft 544 kts 83°
2026-04-22 00:41 44.55437 -87.86150 38918 ft 548 kts 89°
2026-04-22 00:41 44.55360 -87.75566 38921 ft 545 kts 84°
2026-04-22 00:42 44.55356 -87.64922 38929 ft 547 kts 88°
2026-04-22 00:42 44.55230 -87.54247 38936 ft 547 kts 86°
2026-04-22 00:43 44.55205 -87.43581 38935 ft 547 kts 88°
2026-04-22 00:43 44.55087 -87.34697 38938 ft 547 kts 87°
2026-04-22 00:44 44.55028 -87.24037 38941 ft 547 kts 88°
2026-04-22 00:44 44.54899 -87.13375 38941 ft 547 kts 88°
2026-04-22 00:45 44.54796 -87.02719 38943 ft 547 kts 88°
2026-04-22 00:45 44.54664 -86.92059 38952 ft 547 kts 88°
2026-04-22 00:46 44.54532 -86.81401 38951 ft 547 kts 88°
2026-04-22 00:46 44.54385 -86.70746 38949 ft 547 kts 88°
2026-04-22 00:47 44.54232 -86.60153 38946 ft 547 kts 88°
2026-04-22 00:47 44.54066 -86.49497 38952 ft 548 kts 89°
2026-04-22 00:48 44.53891 -86.38820 38949 ft 548 kts 89°
2026-04-22 00:48 44.53705 -86.28142 38947 ft 548 kts 89°
2026-04-22 00:49 44.53511 -86.17469 38961 ft 548 kts 89°
2026-04-22 00:49 44.53305 -86.06767 38943 ft 549 kts 89°
2026-04-22 00:50 44.53089 -85.96072 38938 ft 549 kts 89°
2026-04-22 00:50 44.52864 -85.85367 38930 ft 549 kts 89°
2026-04-22 00:51 44.52628 -85.74675 38924 ft 549 kts 89°
2026-04-22 00:51 44.52382 -85.63977 38928 ft 549 kts 90°
2026-04-22 00:52 44.52127 -85.53283 38924 ft 549 kts 90°
2026-04-22 00:52 44.51861 -85.42589 38926 ft 549 kts 90°
2026-04-22 00:53 44.51585 -85.31874 38918 ft 551 kts 90°
2026-04-22 00:53 44.51299 -85.21150 38918 ft 551 kts 90°
2026-04-22 00:54 44.51003 -85.10432 38921 ft 551 kts 90°
2026-04-22 00:54 44.50698 -84.99778 38908 ft 552 kts 90°
2026-04-22 00:55 44.50380 -84.89021 38903 ft 552 kts 90°
2026-04-22 00:55 44.49887 -84.72915 38930 ft 552 kts 91°
2026-04-22 00:56 44.49544 -84.62159 38927 ft 554 kts 91°
2026-04-22 00:56 44.49190 -84.51383 38924 ft 554 kts 91°
2026-04-22 00:57 44.48826 -84.40605 38923 ft 554 kts 91°
2026-04-22 00:57 44.48452 -84.29829 38915 ft 554 kts 91°
2026-04-22 00:58 44.48067 -84.19019 38915 ft 555 kts 91°
2026-04-22 00:58 44.47673 -84.08265 38915 ft 557 kts 91°
2026-04-22 00:59 44.47267 -83.97441 38909 ft 557 kts 91°
2026-04-22 00:59 44.46850 -83.86601 38909 ft 559 kts 91°
2026-04-22 01:00 44.46421 -83.75734 38908 ft 558 kts 92°
2026-04-22 01:00 44.45983 -83.64885 38907 ft 558 kts 92°
2026-04-22 01:01 44.45534 -83.54030 38913 ft 558 kts 92°
2026-04-22 01:01 44.45073 -83.43130 38902 ft 560 kts 92°
2026-04-22 01:02 44.44652 -83.32325 38916 ft 560 kts 91°
2026-04-22 01:02 44.44356 -83.21429 38920 ft 560 kts 91°
2026-04-22 01:03 44.43944 -83.10536 38927 ft 558 kts 91°
2026-04-22 01:03 44.43599 -82.99673 38935 ft 558 kts 91°
2026-04-22 01:04 44.43195 -82.88884 38938 ft 559 kts 91°
2026-04-22 01:04 44.42810 -82.78024 38949 ft 559 kts 91°
2026-04-22 01:05 44.42395 -82.67157 38946 ft 560 kts 92°
2026-04-22 01:05 44.41981 -82.56280 38947 ft 560 kts 91°
2026-04-22 01:06 44.41550 -82.45412 38956 ft 560 kts 92°
2026-04-22 01:06 44.41112 -82.34531 38962 ft 561 kts 92°
2026-04-22 01:07 44.40662 -82.23639 38962 ft 561 kts 92°
2026-04-22 01:07 44.40201 -82.12747 38962 ft 561 kts 92°
2026-04-22 01:08 44.39730 -82.01854 38968 ft 561 kts 92°
2026-04-22 01:08 44.39249 -81.90959 38971 ft 561 kts 92°
2026-04-22 01:09 44.38761 -81.80148 38971 ft 561 kts 92°
2026-04-22 01:09 44.38255 -81.69183 38972 ft 561 kts 92°
2026-04-22 01:10 44.37746 -81.58371 38976 ft 560 kts 92°
2026-04-22 01:10 44.37224 -81.47499 38980 ft 561 kts 92°
2026-04-22 01:11 44.36690 -81.36610 38982 ft 561 kts 92°
2026-04-22 01:11 44.36148 -81.25740 38991 ft 561 kts 92°
2026-04-22 01:12 44.35594 -81.14874 38998 ft 561 kts 92°
2026-04-22 01:12 44.35031 -81.04003 39005 ft 560 kts 92°
2026-04-22 01:13 44.34456 -80.93120 39005 ft 561 kts 92°
2026-04-22 01:13 44.33875 -80.82314 39007 ft 561 kts 92°
2026-04-22 01:14 44.33280 -80.71449 39012 ft 561 kts 93°
2026-04-22 01:14 44.32675 -80.60569 39022 ft 561 kts 93°
2026-04-22 01:15 44.32058 -80.49692 39021 ft 560 kts 93°
2026-04-22 01:15 44.31434 -80.38860 39024 ft 560 kts 93°
2026-04-22 01:16 44.30800 -80.28022 39031 ft 560 kts 93°
2026-04-22 01:16 44.30159 -80.17255 39031 ft 561 kts 93°
2026-04-22 01:17 44.29503 -80.06417 39037 ft 560 kts 93°
2026-04-22 01:17 44.28840 -79.95608 39051 ft 560 kts 93°
2026-04-22 01:18 44.28162 -79.84749 39059 ft 560 kts 93°
2026-04-22 01:18 44.27476 -79.73909 39058 ft 563 kts 93°
2026-04-22 01:19 44.26775 -79.63036 39070 ft 563 kts 93°
2026-04-22 01:19 44.26066 -79.52152 39084 ft 563 kts 93°
2026-04-22 01:20 44.25345 -79.41281 39097 ft 563 kts 93°
2026-04-22 01:20 44.24617 -79.30442 39098 ft 561 kts 94°
2026-04-22 01:21 44.23879 -79.19615 39105 ft 561 kts 94°
2026-04-22 01:21 44.23130 -79.08784 39110 ft 561 kts 94°
2026-04-22 01:22 44.22376 -78.98028 39109 ft 561 kts 94°
2026-04-22 01:22 44.21607 -78.87203 39108 ft 561 kts 94°
2026-04-22 01:23 44.20828 -78.76390 39116 ft 561 kts 94°
2026-04-22 01:23 44.20039 -78.65576 39115 ft 562 kts 94°
2026-04-22 01:24 44.19238 -78.54739 39112 ft 562 kts 94°
2026-04-22 01:24 44.18432 -78.43979 39104 ft 562 kts 94°
2026-04-22 01:25 44.17610 -78.33152 39110 ft 562 kts 94°
2026-04-22 01:25 44.16779 -78.22325 39108 ft 562 kts 94°
2026-04-22 01:26 44.15937 -78.11504 39118 ft 562 kts 94°
2026-04-22 01:26 44.15085 -78.00687 39128 ft 562 kts 94°
2026-04-22 01:27 44.14221 -77.89850 39138 ft 563 kts 94°
2026-04-22 01:27 44.13347 -77.79019 39138 ft 563 kts 94°
2026-04-22 01:28 44.12461 -77.68172 39136 ft 563 kts 94°
2026-04-22 01:28 44.11567 -77.57350 39139 ft 564 kts 94°
2026-04-22 01:29 44.10665 -77.46566 39136 ft 564 kts 94°
2026-04-22 01:29 44.09747 -77.35713 39138 ft 564 kts 95°
2026-04-22 01:30 44.08820 -77.24871 39145 ft 564 kts 95°
2026-04-22 01:30 44.07881 -77.14022 39153 ft 565 kts 95°
2026-04-22 01:31 44.06932 -77.03167 39170 ft 565 kts 95°
2026-04-22 01:31 44.05971 -76.92316 39179 ft 565 kts 95°
2026-04-22 01:32 44.05001 -76.81467 39169 ft 566 kts 95°
2026-04-22 01:32 44.04021 -76.70629 39170 ft 566 kts 95°
2026-04-22 01:33 44.03029 -76.59778 39168 ft 565 kts 95°
2026-04-22 01:33 44.02397 -76.48922 39160 ft 561 kts 85°
2026-04-22 01:34 44.03550 -76.38369 39165 ft 554 kts 72°
2026-04-22 01:34 44.05429 -76.27997 39168 ft 555 kts 73°
2026-04-22 01:35 44.06803 -76.17419 39161 ft 556 kts 76°
2026-04-22 01:35 44.08176 -76.08642 39156 ft 553 kts 73°
2026-04-22 01:36 44.09696 -75.98195 39153 ft 555 kts 76°
2026-04-22 01:36 44.11207 -75.87674 39130 ft 554 kts 73°
2026-04-22 01:37 44.12749 -75.77146 39130 ft 555 kts 75°
2026-04-22 01:37 44.14229 -75.66623 39125 ft 553 kts 74°
2026-04-22 01:38 44.15746 -75.56123 39134 ft 554 kts 75°
2026-04-22 01:38 44.17212 -75.45599 39148 ft 553 kts 75°
2026-04-22 01:39 44.18702 -75.35073 39175 ft 553 kts 75°
2026-04-22 01:39 44.20838 -75.24884 39175 ft 545 kts 64°
2026-04-22 01:40 44.23586 -75.15249 38090 ft 548 kts 68°
2026-04-22 01:40 44.24769 -75.10213 39195 ft 541 kts 69°
2026-04-22 01:40 44.25811 -75.05134 39193 ft 547 kts 69°
2026-04-22 01:41 44.28186 -74.95256 38534 ft 526 kts 65°
2026-04-22 01:41 44.29361 -74.90506 37862 ft 509 kts 66°
2026-04-22 01:41 44.30408 -74.85863 37204 ft 496 kts 67°
2026-04-22 01:42 44.31437 -74.81299 36559 ft 491 kts 66°
2026-04-22 01:42 44.32524 -74.76772 35916 ft 492 kts 65°
2026-04-22 01:42 44.33619 -74.72231 35269 ft 495 kts 65°
2026-04-22 01:42 44.34679 -74.67640 34615 ft 497 kts 65°
2026-04-22 01:43 44.35728 -74.63030 33921 ft 498 kts 65°
2026-04-22 01:43 44.36800 -74.58425 33248 ft 500 kts 64°
2026-04-22 01:43 44.37888 -74.53801 32584 ft 502 kts 64°
2026-04-22 01:43 44.38964 -74.49154 31917 ft 504 kts 64°
2026-04-22 01:44 44.40023 -74.44519 31253 ft 505 kts 64°
2026-04-22 01:44 44.41102 -74.39828 30581 ft 507 kts 64°
2026-04-22 01:44 44.42178 -74.35157 29870 ft 501 kts 64°
2026-04-22 01:44 44.43237 -74.30539 29247 ft 496 kts 64°
2026-04-22 01:45 44.44283 -74.25963 28596 ft 492 kts 64°
2026-04-22 01:45 44.45320 -74.21424 27958 ft 487 kts 64°
2026-04-22 01:45 44.46345 -74.16928 27322 ft 483 kts 64°
2026-04-22 01:45 44.47359 -74.12471 26693 ft 479 kts 64°
2026-04-22 01:46 44.48363 -74.08047 26062 ft 474 kts 64°
2026-04-22 01:46 44.49354 -74.03668 25438 ft 470 kts 64°
2026-04-22 01:46 44.50334 -73.99331 24823 ft 465 kts 64°
2026-04-22 01:46 44.51307 -73.95027 24212 ft 461 kts 64°
2026-04-22 01:47 44.52267 -73.90765 23556 ft 457 kts 64°
2026-04-22 01:47 44.53217 -73.86532 22956 ft 453 kts 64°
2026-04-22 01:47 44.54154 -73.82349 22362 ft 448 kts 64°
2026-04-22 01:47 44.55084 -73.78198 21774 ft 444 kts 64°
2026-04-22 01:48 44.56003 -73.74087 21190 ft 440 kts 64°
2026-04-22 01:48 44.56911 -73.70015 20616 ft 436 kts 65°
2026-04-22 01:48 44.57810 -73.65971 20042 ft 432 kts 65°
2026-04-22 01:48 44.58702 -73.61957 19481 ft 428 kts 65°
2026-04-22 01:49 44.59582 -73.57991 18921 ft 424 kts 65°
2026-04-22 01:49 44.60449 -73.54066 18334 ft 418 kts 65°
2026-04-22 01:49 44.61293 -73.50248 17605 ft 414 kts 65°
2026-04-22 01:49 44.62133 -73.46435 17035 ft 406 kts 66°
2026-04-22 01:50 44.62962 -73.42671 16494 ft 401 kts 66°
2026-04-22 01:50 44.63781 -73.38947 15968 ft 397 kts 66°
2026-04-22 01:50 44.64589 -73.35261 15456 ft 392 kts 67°
2026-04-22 01:50 44.65387 -73.31617 14948 ft 388 kts 67°
2026-04-22 01:51 44.66176 -73.28012 14457 ft 384 kts 67°
2026-04-22 01:51 44.66953 -73.24448 13946 ft 380 kts 68°
2026-04-22 01:51 44.67722 -73.20921 13439 ft 376 kts 68°
2026-04-22 01:51 44.68484 -73.17419 12951 ft 373 kts 68°
2026-04-22 01:52 44.69238 -73.13947 12468 ft 370 kts 68°
2026-04-22 01:52 44.69982 -73.10506 12000 ft 362 kts 69°
2026-04-22 01:52 44.70712 -73.07135 11536 ft 359 kts 69°
2026-04-22 01:52 44.71427 -73.03826 11080 ft 343 kts 70°
2026-04-22 01:53 44.72090 -73.00729 10673 ft 319 kts 70°
2026-04-22 01:53 44.72715 -72.97835 10291 ft 302 kts 70°
2026-04-22 01:53 44.73316 -72.95059 9906 ft 291 kts 70°
2026-04-22 01:53 44.73901 -72.92343 9539 ft 290 kts 70°
2026-04-22 01:54 44.74484 -72.89626 9162 ft 290 kts 71°
2026-04-22 01:54 44.75066 -72.86909 8784 ft 289 kts 71°
2026-04-22 01:54 44.75644 -72.84206 8409 ft 288 kts 71°
2026-04-22 01:54 44.76222 -72.81501 8021 ft 288 kts 72°
2026-04-22 01:55 44.76675 -72.78769 7597 ft 288 kts 84°
2026-04-22 01:55 44.76743 -72.75961 7267 ft 286 kts 89°
2026-04-22 01:55 44.76765 -72.73173 6899 ft 282 kts 89°
2026-04-22 01:55 44.76821 -72.70475 6526 ft 270 kts 88°
2026-04-22 01:56 44.76888 -72.67922 6166 ft 250 kts 89°
2026-04-22 01:56 44.76819 -72.65572 5832 ft 235 kts 103°
2026-04-22 01:56 44.76114 -72.63676 5509 ft 211 kts 134°
2026-04-22 01:56 44.74990 -72.62556 5268 ft 190 kts 159°
2026-04-22 01:57 44.73730 -72.62215 5034 ft 181 kts 180°
2026-04-22 01:57 44.72482 -72.62176 4793 ft 180 kts 180°
2026-04-22 01:57 44.71235 -72.62116 4538 ft 177 kts 179°
2026-04-22 01:57 44.70000 -72.62062 4273 ft 177 kts 180°
2026-04-22 01:58 44.68798 -72.62013 4022 ft 171 kts 180°
2026-04-22 01:58 44.67623 -72.61966 3781 ft 167 kts 180°
2026-04-22 01:58 44.66466 -72.61920 3524 ft 166 kts 180°
2026-04-22 01:58 44.65321 -72.61874 3270 ft 161 kts 180°
2026-04-22 01:59 44.64229 -72.61830 3016 ft 158 kts 180°
2026-04-22 01:59 44.63111 -72.61786 2776 ft 163 kts 180°
2026-04-22 01:59 44.62085 -72.61742 2533 ft 132 kts 180°
2026-04-22 01:59 44.61176 -72.61707 2332 ft 131 kts 180°
2026-04-22 02:00 44.60282 -72.61671 2132 ft 125 kts 180°
2026-04-22 02:00 44.59433 -72.61637 1968 ft 120 kts 179°
2026-04-22 02:00 44.58610 -72.61604 1976 ft 119 kts 180°
2026-04-22 02:00 44.57787 -72.61576 1878 ft 120 kts 179°
2026-04-22 02:01 44.56920 -72.61544 1573 ft 129 kts 178°
2026-04-22 02:01 44.56011 -72.61484 1264 ft 131 kts 178°
2026-04-22 02:01 44.55115 -72.61458 1047 ft 126 kts 179°
2026-04-22 02:01 44.54250 -72.61429 812 ft 125 kts 180°
2026-04-22 02:02 44.53445 -72.61406 741 ft 98 kts 178°
2026-04-22 02:02 44.53054 -72.61385 742 ft 29 kts 176°
2026-04-22 02:02 44.52936 -72.61367 739 ft 13 kts 163°
2026-04-22 02:02 44.52912 -72.61376 739 ft 2 kts 332°
2026-04-22 02:03 44.52961 -72.61379 740 ft 11 kts 358°
2026-04-22 02:03 44.53038 -72.61382 741 ft 11 kts 356°
2026-04-22 02:03 44.53140 -72.61388 740 ft 20 kts 358°
2026-04-22 02:03 44.53284 -72.61393 739 ft 20 kts 358°
2026-04-22 02:04 44.53596 -72.61407 738 ft 15 kts 358°
2026-04-22 02:04 44.53635 -72.61436 737 ft 0 kts 276°
2026-04-22 02:04 44.53634 -72.61456 739 ft 6 kts 269°
2026-04-22 02:05 44.53645 -72.61486 739 ft 5 kts 343°
2026-04-22 02:05 44.53706 -72.61488 739 ft 10 kts 359°
2026-04-22 02:05 44.53777 -72.61491 739 ft 11 kts 358°
2026-04-22 02:05 44.53843 -72.61501 738 ft 6 kts 317°
2026-04-22 02:06 44.53843 -72.61555 738 ft 6 kts 256°
2026-04-22 02:06 44.53815 -72.61579 738 ft 5 kts 178°
2026-04-22 02:06 44.53807 -72.61579 737 ft 0 kts 178°